Vertical_Velocity
3 -3 -1 -1 -2 -5 -1 -2 2 3 1 -2 1 -1 3 5 2 1 -2 -12 -15 -0
2 0 -5 1 2 -5 4 -4 -3 -0 -5 0 0 0 3 1 11 0 2 2 -2 -1
-0 -3 -2 -5 -3 3 -0 -1 -3 -8 -1 3 -2 1 3 1 -1 4 3 5 15 1
-1 -3 2 -3 -2 -1 -1 -2 -4 -4 -1 -4 -2 5 -1 2 3 -1 -0 2 5 -8
1 1 -0 -1 -1 -3 -3 1 -5 -0 -5 3 -1 0 2 5 4 2 4 1 8 2
0 1 -1 -0 2 -1 -5 -1 1 -4 -2 1 -0 -1 4 2 14 -4 -0 1 -4 2
-2 -0 -2 0 1 -4 -3 -3 1 -1 -1 -0 -1 -1 -1 3 3 -6 1 -2 2 6
-0 2 -2 0 -1 1 -1 -1 1 -4 2 4 3 -3 3 0 1 -32 -12 16 15 0
-1 1 -3 3 -3 -1 2 -1 -5 1 -1 1 -3 -3 -0 3 6 -2 24 25 16 48
2 -0 -1 -1 -3 -2 -2 -3 -3 1 -1 2 2 8 -3 9 5 1 -0 9 7 9
-1 -1 -1 2 -3 -5 -6 -4 0 -0 4 4 1 4 -0 8 -0 7 3 -6 28 6
-1 1 0 -1 1 1 -3 -4 -5 2 3 -8 1 6 8 1 5 -2 0 2 5 -0
-1 2 -3 -1 -0 8 -5 -2 -1 2 -2 3 1 6 4 -0 -3 0 -8 -0 -18 -12
2 -2 -1 3 -2 5 -3 1 -3 -3 -0 -2 -0 2 2 -3 -6 -3 4 6 3 -7
Height
1430 1428 1424 1420 1416 1413 1409 1405 1403 1400 1399 1396 1395 1395 1400 1401 1402 1405 1410 1411 1414 1421
1427 1423 1420 1416 1412 1410 1405 1399 1397 1393 1391 1389 1385 1384 1389 1393 1394 1397 1400 1400 1405 1408
1423 1420 1417 1413 1409 1405 1399 1396 1391 1388 1385 1380 1377 1378 1379 1383 1385 1387 1391 1394 1396 1398
1424 1420 1415 1410 1405 1400 1396 1391 1387 1383 1378 1375 1372 1371 1371 1374 1377 1379 1382 1383 1388 1389
1424 1418 1412 1407 1404 1398 1392 1387 1383 1379 1376 1370 1368 1365 1365 1367 1368 1371 1373 1375 1376 1378
1423 1417 1411 1406 1400 1394 1389 1385 1379 1375 1372 1366 1363 1360 1358 1359 1362 1364 1366 1366 1366 1369
1423 1418 1412 1407 1399 1394 1390 1384 1378 1373 1370 1363 1358 1354 1354 1354 1355 1356 1357 1356 1358 1360
1426 1421 1416 1409 1402 1397 1391 1384 1379 1376 1370 1362 1355 1349 1347 1347 1347 1345 1346 1344 1350 1354
1429 1425 1420 1412 1406 1402 1393 1385 1383 1378 1369 1361 1354 1349 1345 1343 1343 1345 1337 1343 1346 1336
1433 1428 1422 1417 1412 1405 1397 1394 1389 1379 1372 1363 1358 1351 1345 1341 1341 1341 1340 1333 1341 1344
1436 1432 1428 1422 1416 1411 1406 1401 1395 1386 1378 1369 1362 1357 1351 1342 1339 1338 1336 1338 1333 1341
1440 1437 1431 1425 1420 1417 1413 1408 1401 1394 1385 1379 1373 1366 1357 1351 1348 1346 1343 1343 1342 1336
1444 1439 1434 1430 1426 1422 1417 1414 1408 1401 1395 1389 1382 1375 1367 1360 1354 1350 1349 1351 1345 1341
1448 1443 1440 1436 1432 1426 1422 1419 1413 1407 1402 1396 1389 1383 1376 1371 1366 1361 1358 1352 1347 1349